Orbital Elements at Epoch 2459200.5 (2020-Dec-17.0) TDB
Reference: JPL 14 (heliocentric ecliptic J2000)
Element | Value | Uncertainty (1-sigma) | Units |
e | .1074916698918172 | 6.1323e-08 | |
a | 2.228368879291596 | 1.0405e-08 | au |
q | 1.988837787321585 | 1.392e-07 | au |
i | 6.009401819274868 | 5.7934e-06 | deg |
node | 44.99086783332989 | 4.8883e-05 | deg |
peri | 172.4138021672935 | 5.4336e-05 | deg |
M | 276.9470015843215 | 2.4628e-05 | deg |
tp | 2459480.805661255700 (2021-Sep-23.30566126) | 8.3563e-05 | TDB |
period | 1215.007765848495 3.33 | 8.5103e-06 2.33e-08 | d yr |
n | .2962944024877041 | 2.0753e-09 | deg/d |
Q | 2.467899971261606 | 1.1524e-08 | au |
|
| | Orbit Determination Parameters
Additional Information
|